• En España
  • Lista de países
  • Para 7 días
  • Temperatura del agua
  • Mapa Satelital
  • El tiempo en el mapa
  • Informadores
  • user-avatar
    Iniciar sesión

    Tiempo cada hora Traktovaya

    Hoy, 17 Agosto, Viernes

    Tiempo Temperatura Precipitaciones Viento Presión Humedad
    00:00 +15°C° 0,1 mm 2 mps 742 mmHg 98%
    01:00 +13°C° 0,1 mm 3 mps 742 mmHg 98%
    02:00 +13°C° 0,1 mm 3 mps 743 mmHg 97%
    03:00 +13°C° 0,1 mm 3 mps 743 mmHg 97%
    04:00 +12°C° 0 mm 3 mps 743 mmHg 98%
    05:00 +12°C° 0,2 mm 3 mps 744 mmHg 97%
    06:00 +12°C° 0,2 mm 4 mps 744 mmHg 97%
    07:00 +12°C° 0,2 mm 4 mps 745 mmHg 96%
    08:00 +12°C° 0,1 mm 4 mps 745 mmHg 92%
    09:00 +13°C° 0,1 mm 4 mps 746 mmHg 87%
    10:00 +13°C° 0,1 mm 4 mps 746 mmHg 83%
    11:00 +14°C° 0,1 mm 4 mps 746 mmHg 76%
    12:00 +15°C° 0,1 mm 4 mps 747 mmHg 69%
    13:00 +18°C° 0,1 mm 4 mps 747 mmHg 62%
    14:00 +18°C° 0,1 mm 4 mps 747 mmHg 58%
    15:00 +18°C° 0,1 mm 4 mps 747 mmHg 55%
    16:00 +19°C° 0,1 mm 4 mps 747 mmHg 51%
    17:00 +17°C° 0,1 mm 4 mps 747 mmHg 60%
    18:00 +16°C° 0,1 mm 3 mps 747 mmHg 70%
    19:00 +13°C° 0,1 mm 3 mps 747 mmHg 80%
    20:00 +13°C° 0 mm 2 mps 748 mmHg 85%
    21:00 +10°C° 0 mm 2 mps 748 mmHg 91%
    22:00 +9°C° 0 mm 2 mps 748 mmHg 97%
    23:00 +9°C° 0 mm 2 mps 748 mmHg 97%

    Mañana, 18 Agosto, Sábado

    Tiempo Temperatura Precipitaciones Viento Presión Humedad
    00:00 +8°C° 0 mm 2 mps 748 mmHg 97%
    01:00 +8°C° 0 mm 2 mps 749 mmHg 97%
    02:00 +7°C° 0 mm 2 mps 749 mmHg 98%
    03:00 +7°C° 0 mm 2 mps 749 mmHg 98%
    04:00 +7°C° 0 mm 2 mps 749 mmHg 98%
    05:00 +7°C° 0 mm 2 mps 750 mmHg 96%
    06:00 +8°C° 0 mm 2 mps 750 mmHg 94%
    07:00 +9°C° 0 mm 3 mps 750 mmHg 91%
    08:00 +10°C° 0 mm 3 mps 750 mmHg 84%
    09:00 +12°C° 0 mm 3 mps 750 mmHg 77%
    10:00 +13°C° 0 mm 3 mps 750 mmHg 70%
    11:00 +14°C° 0 mm 3 mps 750 mmHg 65%
    12:00 +16°C° 0 mm 3 mps 750 mmHg 60%
    13:00 +17°C° 0 mm 3 mps 750 mmHg 55%
    14:00 +17°C° 0 mm 3 mps 750 mmHg 54%
    15:00 +18°C° 0 mm 3 mps 750 mmHg 53%
    16:00 +18°C° 0 mm 3 mps 750 mmHg 53%
    17:00 +17°C° 0 mm 3 mps 750 mmHg 60%
    18:00 +15°C° 0 mm 2 mps 751 mmHg 67%
    19:00 +14°C° 0 mm 2 mps 751 mmHg 74%
    20:00 +12°C° 0 mm 2 mps 751 mmHg 80%
    21:00 +10°C° 0 mm 2 mps 751 mmHg 87%
    22:00 +8°C° 0 mm 2 mps 752 mmHg 93%
    23:00 +9°C° 0 mm 1 mps 752 mmHg 94%

    Pasado mañana, 19 Agosto, Domingo

    Tiempo Temperatura Precipitaciones Viento Presión Humedad
    00:00 +8°C° 0 mm 1 mps 752 mmHg 95%
    01:00 +8°C° 0 mm 1 mps 752 mmHg 96%
    02:00 +8°C° 0 mm 1 mps 752 mmHg 95%
    03:00 +8°C° 0 mm 1 mps 752 mmHg 94%
    04:00 +8°C° 0 mm 1 mps 753 mmHg 94%
    05:00 +9°C° 0 mm 1 mps 753 mmHg 90%
    06:00 +10°C° 0 mm 1 mps 753 mmHg 87%
    07:00 +11°C° 0 mm 1 mps 753 mmHg 83%
    08:00 +13°C° 0 mm 1 mps 753 mmHg 74%
    09:00 +15°C° 0 mm 1 mps 753 mmHg 66%
    10:00 +18°C° 0 mm 1 mps 753 mmHg 57%
    11:00 +18°C° 0 mm 1 mps 752 mmHg 53%
    12:00 +19°C° 0 mm 1 mps 752 mmHg 50%
    13:00 +20°C° 0 mm 1 mps 751 mmHg 46%
    14:00 +20°C° 0 mm 1 mps 751 mmHg 46%
    15:00 +19°C° 0 mm 2 mps 751 mmHg 45%
    16:00 +20°C° 0 mm 2 mps 751 mmHg 45%
    17:00 +19°C° 0 mm 1 mps 751 mmHg 54%
    18:00 +18°C° 0 mm 1 mps 751 mmHg 63%
    19:00 +15°C° 0 mm 1 mps 751 mmHg 72%
    20:00 +14°C° 0 mm 1 mps 751 mmHg 76%
    21:00 +11°C° 0 mm 0 mps 751 mmHg 81%
    22:00 +10°C° 0 mm 0 mps 751 mmHg 86%
    23:00 +9°C° 0 mm 0 mps 751 mmHg 87%

    20 Agosto, Lunes

    Tiempo Temperatura Precipitaciones Viento Presión Humedad
    00:00 +9°C° 0 mm 0 mps 751 mmHg 89%
    01:00 +8°C° 0 mm 0 mps 751 mmHg 90%
    02:00 +8°C° 0 mm 0 mps 750 mmHg 90%
    03:00 +8°C° 0 mm 0 mps 750 mmHg 91%
    04:00 +8°C° 0 mm 0 mps 750 mmHg 92%
    05:00 +9°C° 0 mm 0 mps 750 mmHg 87%
    06:00 +10°C° 0 mm 0 mps 750 mmHg 82%
    07:00 +13°C° 0 mm 1 mps 750 mmHg 78%
    08:00 +15°C° 0 mm 1 mps 750 mmHg 71%
    09:00 +18°C° 0 mm 1 mps 750 mmHg 64%
    10:00 +20°C° 0 mm 1 mps 749 mmHg 56%
    11:00 +21°C° 0 mm 1 mps 749 mmHg 54%
    12:00 +21°C° 0 mm 2 mps 749 mmHg 52%
    13:00 +23°C° 0 mm 2 mps 748 mmHg 50%
    14:00 +23°C° 0,1 mm 2 mps 748 mmHg 54%
    15:00 +23°C° 0,1 mm 2 mps 748 mmHg 58%
    16:00 +21°C° 0,1 mm 2 mps 747 mmHg 62%
    17:00 +20°C° 0,1 mm 2 mps 747 mmHg 70%
    18:00 +19°C° 0,1 mm 2 mps 747 mmHg 78%
    19:00 +18°C° 0,1 mm 1 mps 747 mmHg 86%
    20:00 +16°C° 0 mm 1 mps 747 mmHg 89%
    21:00 +15°C° 0 mm 1 mps 747 mmHg 92%
    22:00 +14°C° 0 mm 1 mps 747 mmHg 95%
    23:00 +14°C° 0 mm 1 mps 746 mmHg 95%

    21 Agosto, Martes

    Tiempo Temperatura Precipitaciones Viento Presión Humedad
    00:00 +14°C° 0 mm 1 mps 746 mmHg 96%
    01:00 +14°C° 0 mm 1 mps 746 mmHg 96%
    02:00 +14°C° 0,1 mm 1 mps 746 mmHg 96%
    03:00 +14°C° 0,1 mm 1 mps 745 mmHg 97%
    04:00 +14°C° 0,1 mm 1 mps 745 mmHg 97%
    05:00 +14°C° 0,1 mm 2 mps 745 mmHg 97%
    06:00 +14°C° 0,1 mm 2 mps 745 mmHg 96%
    07:00 +14°C° 0,1 mm 2 mps 744 mmHg 96%
    08:00 +14°C° 0,9 mm 3 mps 744 mmHg 96%
    09:00 +14°C° 0,9 mm 3 mps 744 mmHg 96%
    10:00 +14°C° 0,9 mm 3 mps 744 mmHg 96%
    11:00 +16°C° 1 mm 3 mps 744 mmHg 95%
    12:00 +16°C° 1 mm 3 mps 743 mmHg 95%
    13:00 +17°C° 1 mm 2 mps 743 mmHg 94%
    14:00 +17°C° 0,2 mm 3 mps 743 mmHg 90%
    15:00 +18°C° 0,2 mm 3 mps 743 mmHg 87%
    16:00 +19°C° 0,2 mm 3 mps 743 mmHg 83%
    17:00 +18°C° 0,1 mm 3 mps 743 mmHg 86%
    18:00 +17°C° 0,1 mm 2 mps 744 mmHg 89%
    19:00 +17°C° 0,1 mm 2 mps 744 mmHg 92%
    20:00 +15°C° 0 mm 2 mps 744 mmHg 94%
    21:00 +14°C° 0 mm 1 mps 744 mmHg 95%
    22:00 +13°C° 0 mm 1 mps 744 mmHg 97%
    23:00 +13°C° 0 mm 1 mps 744 mmHg 97%

    22 Agosto, Miércoles

    Tiempo Temperatura Precipitaciones Viento Presión Humedad
    00:00 +12°C° 0 mm 1 mps 745 mmHg 97%
    01:00 +12°C° 0 mm 1 mps 745 mmHg 97%
    02:00 +11°C° 0 mm 1 mps 745 mmHg 97%
    03:00 +11°C° 0 mm 1 mps 745 mmHg 97%
    04:00 +10°C° 0 mm 1 mps 745 mmHg 97%
    05:00 +11°C° 0 mm 1 mps 746 mmHg 96%
    06:00 +12°C° 0 mm 1 mps 746 mmHg 95%
    07:00 +12°C° 0 mm 0 mps 746 mmHg 93%
    08:00 +15°C° 0 mm 1 mps 746 mmHg 83%
    09:00 +18°C° 0 mm 1 mps 746 mmHg 74%
    10:00 +19°C° 0 mm 1 mps 746 mmHg 64%
    11:00 +19°C° 0 mm 2 mps 745 mmHg 57%
    12:00 +20°C° 0 mm 2 mps 745 mmHg 51%
    13:00 +21°C° 0 mm 2 mps 745 mmHg 44%
    14:00 +21°C° 0 mm 2 mps 745 mmHg 45%
    15:00 +21°C° 0 mm 2 mps 745 mmHg 47%
    16:00 +21°C° 0 mm 2 mps 744 mmHg 48%
    17:00 +20°C° 0 mm 1 mps 744 mmHg 56%
    18:00 +18°C° 0 mm 1 mps 744 mmHg 64%
    19:00 +15°C° 0 mm 0 mps 744 mmHg 72%
    20:00 +14°C° 0 mm 0 mps 744 mmHg 73%
    21:00 +13°C° 0 mm 0 mps 744 mmHg 73%
    22:00 +13°C° 0 mm 0 mps 744 mmHg 74%
    23:00 +12°C° 0 mm 0 mps 744 mmHg 75%
    Mostrar más